Other Public Products
Issued by NWS Grand Forks, ND

Home | Current Version | Previous Version | Graphics & Text | Print | Product List | Glossary On
Versions: 1 2 3 4 5 6 7 8 9 10 11 12 13 14 15 16 17 18 19 20 21 22 23 24 25 26 27 28 29 30 31 32 33 34 35 36 37 38 39 40 41 42 43 44 45 46 47 48 49 50
000
FPUS83 KFGF 020531
OPUFGF
PRAIRIE TO PINES WEATHER ROUNDUP
NATIONAL WEATHER SERVICE EASTERN NORTH DAKOTA/GRAND FORKS ND
1200 AM CDT THU JUL 02 2015

 **SATELLITE DATA USED TO AUGMENT SKY COVER AT AUTOMATED STATIONS**
 *****  WEATHER ACROSS EASTERN NORTH DAKOTA  *****

CITY           SKY/WX    TMP DP  RH WIND       PRES   REMARKS
GRAND FORKS    PTCLDY    65  61  87 S7        29.94F
GRAND FORKS AF PTCLDY    64  61  89 S7        29.95S
GRAND CITY NWS   N/A     64 N/A N/A S5          N/A
BUXTON         NOT AVBL
DEVILS LAKE    MOCLDY    70  61  73 S8        29.94F
FARGO          CLEAR     65  56  72 S9        29.97F
WAHPETON ARPT  NOT AVBL
$$

 *****  WEATHER ACROSS CENTRAL AND WESTERN NORTH DAKOTA  *****

CITY           SKY/WX    TMP DP  RH WIND       PRES   REMARKS
JAMESTOWN      CLEAR     65  62  90 S6        29.97R
BISMARCK       CLOUDY    67  65  93 E3        29.96F
MINOT          CLOUDY    67  64  90 CALM      29.96S FOG
MINOT AFB      CLOUDY    65  65 100 CALM      29.95S FOG
GARRISON         N/A     68  64  87 E3        29.96S
WILLISTON      CLOUDY    65  59  81 NW3       30.00F
DICKINSON      CLOUDY    64  61  90 W5        29.99F
HETTINGER      CLOUDY    63  60  90 NW6       30.04R
$$

 *****  OTHER OBSERVATIONS NORTHEAST NORTH DAKOTA  *****

CITY           SKY/WX    TMP DP  RH WIND       PRES   REMARKS
WALHALLA       FAIR      63  63 100 MISG      29.94S
LANGDON        FAIR      57  55  94 S6        29.97R
CAVALIER       FAIR      63  59  88 CALM      29.94R FOG
GRAFTON        FAIR      61  61 100 S6        29.94S
CANDO          FAIR      64  61  88 S5        29.95F
FORT TOTTEN      N/A     68  62  81 S6        29.95S
ROLLA          CLOUDY    63  63 100 CALM      29.98S
RUGBY          NOT AVBL
 ***** THE ABOVE OBSERVATIONS ARE NON NWS ARE NOT QUALITY
        CONTROLLED AND MAY MIS-REPORT RAIN FOR SNOW...
$$

 *****  OTHER OBSERVATIONS SOUTHEAST NORTH DAKOTA *****

CITY           SKY/WX    TMP DP  RH WIND       PRES   REMARKS
COOPERSTOWN    NOT AVBL
VALLEY CITY    MOCLDY    63  63 100 S7        29.98S
OAKES            N/A     63  63 100 SE5       29.98S
GWINNER          N/A     64  61  88 SE6       29.99S
SHEYENNE NWR     N/A     60  56  85 S3        29.95S
BUFFALO        NOT AVBL
WYNDMERE       NOT AVBL
 ***** THE ABOVE OBSERVATIONS ARE NON NWS ARE NOT QUALITY
       CONTROLLED AND MAY MIS-REPORT RAIN FOR SNOW...
$$

  *****  WEATHER ACROSS NORTHERN MINNESOTA  *****

CITY           SKY/WX    TMP DP  RH WIND       PRES   REMARKS
FLAG ISLAND    NOT AVBL
WARROAD        NOT AVBL
ROSEAU         NOT AVBL
HALLOCK        NOT AVBL
THF RVR FALLS  CLEAR     63  57  82 S6        29.98S
HALSTAD        NOT AVBL
FOSSTON        CLEAR     57  54  88 CALM      30.00S
BAUDETTE       PTCLDY    60  58  92 CALM      29.96S
WASKISH        CLEAR     61  59  94 CALM      29.97S
CROOKSTON      PTCLDY    63  57  82 S6        29.97S
$$
  *****  WEATHER ACROSS CENTRAL AND WEST MINNESOTA  *****

CITY           SKY/WX    TMP DP  RH WIND       PRES   REMARKS
BEMIDJI        NOT AVBL
PARK RAPIDS    CLEAR     63  55  75 SW5       30.00S
WADENA           N/A     59  55  88 SW3       30.01S
DETROIT LAKES  CLEAR     63  55  77 SW5       30.02S
MOORHEAD       NOT AVBL
FERGUS FALLS   NOT AVBL
ELBOW LAKE     NOT AVBL
MORRIS MN      NOT AVBL
STAPLES        NOT AVBL
WHEATON        CLEAR     54  54 100 SE6       30.02S
$$
  *****  WEATHER ELSEWHERE ACROSS MINNESOTA  *****

CITY           SKY/WX    TMP DP  RH WIND       PRES   REMARKS
DULUTH         PTCLDY    58  49  72 CALM      30.02S
INTRNTL FALLS  CLEAR     55  53  93 CALM      29.96F
ELY            NOT AVBL
CLOQUET        CLEAR     55  52  88 CALM      30.02S
BRAINERD       PTCLDY    61  55  81 S3        30.02R
HIBBING        PTCLDY    60  56  86 SE5       30.00S
ALEXANDRIA     CLEAR     60  55  83 S7        30.03S
SAINT CLOUD    CLEAR     55  53  93 CALM      30.01S
MINNEAPOLIS    PTCLDY    62  53  72 CALM      30.01S
$$

  *****  WEATHER ACROSS SOUTH DAKOTA  *****

CITY           SKY/WX    TMP DP  RH WIND       PRES   REMARKS
SIOUX FALLS    MOCLDY    63  57  81 E7        29.99R
BROOKINGS      CLEAR     61  54  77 SE8       30.02R
WATERTOWN      CLOUDY    62  53  72 SE6       30.01R
HURON          CLEAR     65  59  81 SE8       29.97R
SISSETON         N/A     59  56  89 S6        29.99R
ABERDEEN       MOCLDY    64  60  87 SE7       29.98R
MITCHELL       PTCLDY    67  64  90 SE7       29.97R
PIERRE         MOCLDY    68  65  90 E5        29.94S
MOBRIDGE       CLOUDY    70  68  93 E8        29.94F
RAPID CITY     RAIN      68  65  90 N12       30.06R
$$

  *****  SOME WEATHER IN NEARBY STATES *****

CITY           SKY/WX    TMP DP  RH WIND       PRES   REMARKS
GLASGOW MT     PTCLDY    63  51  65 W5        30.05R
GREAT FALLS MT CLOUDY    70  51  51 NE10      30.17R
CHEYENNE WY    PTCLDY    60  54  80 W10       30.17F
SCOTTSBLUFF NE MOCLDY    68  62  81 SE6       30.04F
OMAHA NE       PTCLDY    70  65  84 E5        29.92S
DES MOINES IA  MOCLDY    65  56  72 E9        29.95S
DAVENPORT IA   MOCLDY    63  54  72 E7        29.98R
CHICAGO IL     MOCLDY    54  49  83 N6        30.00S
EAU CLAIRE WI  CLEAR     56  52  86 CALM      30.00F
LA CROSSE WI   CLEAR     57  54  89 CALM      30.00F
$$

  *****  SOME NATIONAL WEATHER *****

CITY           SKY/WX    TMP DP  RH WIND       PRES   REMARKS
LA GUARDIA NY  PTCLDY    76  59  55 NW12      29.87R
RALEIGH NC     CLOUDY    77  70  79 SW5       29.94F
ATLANTA GA     CLOUDY    70  66  87 W3        30.06S
NEW ORLEANS LA CLOUDY    78  73  84 SW6       30.09S
OKLAHOMA CITY  PTCLDY    81  68  64 S14       29.88F
ALBUQUERQUE NM CLOUDY    80  51  36 N16G26    30.14R
SALT LAKE CITY CLOUDY    85  55  35 S3        30.01R
LOS ANGELES CA MOCLDY    67  63  87 W6        29.95R
BOISE ID       PTCLDY    88  37  16 N5        29.92R
SEATTLE WA     CLEAR     79  56  45 N9        29.98R
$$

*** WEATHER ACROSS MANITOBA...SASKATCHEWAN AND ONTARIO ***
                ***ONTARIO***

CITY           SKY/WX    TMP DP  RH WIND       PRES   REMARKS
GERALDTON      CLEAR     52  48  87 W2        29.98S
THUNDER BAY    MOCLDY    54  54 100 W2        29.99S
SIOUX LOOKOUT  CLOUDY    57  57 100 S3        29.96F
TORONTO        MOCLDY    61  54  77 NW12      29.94R
BIG TROUT LK   CLEAR     50  50 100 E3        29.93S
PICKLE LAKE    NOT AVBL
DRYDEN         CLEAR     64  59  82 S7        29.96S
KENORA         MOCLDY    68  59  73 SW5       29.96
$$
                *** MANITOBA***

CITY           SKY/WX    TMP DP  RH WIND       PRES   REMARKS
BRANDON        PTCLDY    59  59 100 W2        29.95R
DAUPHIN        PTCLDY    64  61  88 SW6       29.90S
ISLAND LAKE    PTCLDY    63  59  88 CALM      29.89S
PILOT MOUND      N/A     59  55  88 S3          N/A
THE PAS        CLOUDY    63  61  94 CALM      29.91S SMOKE
THOMPSON       MOCLDY    57  50  77 CALM      29.86F
WINNIPEG       PTCLDY    66  61  82 S7        29.93S
LYNN LAKE      PTCLDY    61  55  82 SW6       29.86F
CHURCHILL      MOCLDY    63  50  63 S10       29.76F
GILLAM         MOCLDY    61  48  63 S7        29.85F
$$
                ***SASKATCHEWAN***

CITY           SKY/WX    TMP DP  RH WIND       PRES   REMARKS
ESTEVAN        CLOUDY    63  63 100 SW7       29.97S SMOKE
KINDERSLEY     MOCLDY    64  61  88 NW7       30.05R
LLOYDMINSTER   CLEAR     63  57  82 NW8       30.04S
PRINCE ALBERT    N/A     64  61  88 N2        29.96R SMOKE
REGINA         CLOUDY    66  63  88 NE5       29.98S


USA.gov is the U.S. government's official web portal to all federal, state and local government web resources and services.